Regional Weather Roundup
Issued by NWS Cleveland, OH

Home | Current Version | Previous Version | Graphics & Text | Print | Product List | Glossary On
Versions: 1 2 3 4 5 6 7 8 9 10 11 12 13 14 15 16 17 18 19 20 21 22 23 24 25 26 27 28 29 30 31 32 33 34 35 36 37 38 39 40 41 42 43 44 45 46 47 48 49 50
000
ASUS41 KCLE 232012
RWRCLE
OHIO REGIONAL WEATHER ROUNDUP
NATIONAL WEATHER SERVICE WILMINGTON, OH
300 PM EST FRI FEB 23 2018

NOTE: "FAIR" INDICATES FEW OR NO CLOUDS BELOW 12,000 FEET WITH NO
SIGNIFICANT WEATHER AND/OR OBSTRUCTIONS TO VISIBILITY.

OHZ001>008-015>018-024>027-034-035-043-044-232100-
   NORTHWEST OHIO

CITY           SKY/WX    TMP DP  RH WIND       PRES   REMARKS
DEFIANCE       CLOUDY    51  47  86 W12G17    30.14R
FINDLAY        CLOUDY    60  52  74 W20G29    30.13R
TOLEDO EXPRESS CLOUDY    51  50  96 SW18      30.12R
TOLEDO EXEC    CLOUDY    53  48  83 W16       30.12R
LIMA           CLOUDY    58  54  86 SW21G30   30.14R
$$

OHZ009>014-019>023-028>033-038-089-232100-
   NORTHEAST OHIO

CITY           SKY/WX    TMP DP  RH WIND       PRES   REMARKS
CLE-HOPKINS    CLOUDY    61  56  83 SW16G26   30.13S
CLE-LAKEFRONT  CLOUDY    60  55  83 SW14      30.09S
CUY CO. ARPT   CLOUDY    61  57  88 SW17      30.11R
LORAIN-ELYRIA  PTSUNNY   60  53  77 W10G21    30.10F
ASHTABULA      CLOUDY    56  55  97 SW12      30.10R
AKRON-CANTON   LGT RAIN  60  56  86 SW13G22   30.14S FOG
WOOSTER        CLOUDY    59  57  93 SW13      30.15R
MANSFIELD      CLOUDY    59  57  93 SW17G29   30.14S
YOUNGSTOWN     LGT RAIN  58  56  93 SW15G23   30.12S
$$

OHZ042-051>053-060>062-070>072-077>081-232100-
  SOUTHWEST OHIO

CITY           SKY/WX    TMP DP  RH WIND       PRES   REMARKS
CINC-COVINGTON CLOUDY    63  61  93 SW9       30.21S
CINC-LUNKEN    CLOUDY    65  62  90 W9        30.20F
HAMILTON       PTSUNNY   60  60 100 W8        30.21S
DAYTON         CLOUDY    58  57  97 W16       30.20S
WRIGHT-PAT AFB CLOUDY    60  58  92 W10       30.19R
DAYTON GENERAL LGT RAIN  60  58  92 SW8       30.18F
WILMINGTON     LGT RAIN  62  61  96 SW18G30   30.19R
$$

OHZ036-037-039>041-045>050-054>059-063>069-073>076-082>088-232100-
  CENTRAL AND SOUTHEAST OHIO

CITY           SKY/WX    TMP DP  RH WIND       PRES   REMARKS
COLUMBUS       CLOUDY    63  60  90 W12       30.17F
OSU AIRPORT    CLOUDY    60  60 100 W8        30.17F FOG
BOLTON FIELD   CLOUDY    63  61  94 SW9       30.18F
RICKENBACK AFB LGT RAIN  63  61  94 SW13G20   30.18S
NEWARK         CLOUDY    64  59  83 W13G24    30.17S
MARION         PTSUNNY   60  57  89 SW12      30.15F
LANCASTER      CLOUDY    64  59  83 SW13G21   30.19S
ZANESVILLE     PTSUNNY   66  57  72 SW16G26   30.18S
NEW PHILLY     LGT RAIN  62  59  90 W8G22     30.16F
$$



USA.gov is the U.S. government's official web portal to all federal, state and local government web resources and services.